[Iaude] MPEC G83: 2017 GK6 [a=1.44,e=0.34,i=14.8,H=25.7]

mpec at si.edu mpec at si.edu
Mon Apr 10 20:26:57 EDT 2017


M.P.E.C. 2017-G83                                Issued 2017 Apr. 11, 00:22 UT
 
     The Minor Planet Electronic Circulars contain information on unusual
         minor planets and routine data on comets.  They are published
    on behalf of Division F of the International Astronomical Union by the
          Minor Planet Center, Smithsonian Astrophysical Observatory,
                          Cambridge, MA 02138, U.S.A.

             Prepared using the Tamkin Foundation Computer Network

                              MPC at CFA.HARVARD.EDU
            URL http://www.minorplanetcenter.net/    ISSN 1523-6714


                                   2017 GK6
 
Observations:
     K17G06K* C2017 04 05.27544 14 52 04.83 -11 27 02.7          16.6 RqEG083Y00
     K17G06K  C2017 04 05.27705 14 51 59.21 -11 30 23.1          16.3 RqEG083Y00
     K17G06K  C2017 04 05.29319 14 51 02.95 -12 03 49.4          16.2 RqEG083Y00
     K17G06K  C2017 04 05.29412 14 50 59.83 -12 05 43.8          16.0 RqEG083Y00
     K17G06K  C2017 04 05.29441 14 50 58.87 -12 06 20.0          16.3 RqEG083Y00
     K17G06K  C2017 04 05.29845 14 50 44.89 -12 14 37.9          16.7 RqEG083Y00
     K17G06K  C2017 04 05.29946 14 50 41.40 -12 16 40.1          16.4 RqEG083Y00
     K17G06K  C2017 04 05.30047 14 50 37.97 -12 18 45.7          16.3 RqEG083Y00
     K17G06K  C2017 04 05.32578 14 49 12.21 -13 09 56.9          16.3 RqEG083Y00
     K17G06K  C2017 04 05.32778 14 49 05.54 -13 13 55.8          16.4 RqEG083Y00
     K17G06K  C2017 04 05.32945 14 48 59.92 -13 17 15.7          16.5 RqEG083Y00
     K17G06K  C2017 04 05.32976 14 48 58.90 -13 17 54.9          16.3 RqEG083Y00
     K17G06K  C2017 04 05.33085 14 48 55.29 -13 20 04.3          16.2 RqEG083Y00
     K17G06K  C2017 04 05.33192 14 48 51.83 -13 22 12.7          16.4 RqEG083Y00
     K17G06K KC2017 04 05.42455 14 44 52.13 -16 36 36.9          16.1 RqEG083926
     K17G06K KC2017 04 05.42488 14 44 51.06 -16 37 13.2          16.0 RqEG083926
     K17G06K KC2017 04 05.42520 14 44 49.99 -16 37 49.9          16.0 RqEG083926
     K17G06K  C2017 04 05.43726 14 44 10.87 -17 00 10.7          16.7 VqEG083I52
     K17G06K  C2017 04 05.43744 14 44 10.29 -17 00 30.5          16.4 VqEG083I52
     K17G06K  C2017 04 05.43763 14 44 09.70 -17 00 50.3          16.4 VqEG083I52
     K17G06K  C2017 04 05.43781 14 44 09.11 -17 01 10.1          16.4 VqEG083I52
     K17G06K KC2017 04 05.57291 14 38 41.51 -20 38 35.6          17.5 VqEG083E23
     K17G06K KC2017 04 05.57985 14 38 20.31 -20 50 08.4          16.5 VqEG083E23
     K17G06K KC2017 04 05.62035 14 36 18.57 -21 55 31.4          17.8 VqEG083E23
     K17G06K KC2017 04 05.62660 14 35 59.89 -22 05 23.6          17.7 VqEG083E23
     K17G06K  C2017 04 06.02174 14 20 56.17 -30 48 23.9          16.9 RrEG083Y00
     K17G06K  C2017 04 06.02270 14 20 53.94 -30 49 30.0          16.8 RrEG083Y00
     K17G06K  C2017 04 06.02365 14 20 51.65 -30 50 34.6          16.9 RrEG083Y00
     K17G06K  C2017 04 06.02460 14 20 49.34 -30 51 39.3          17.1 RrEG083Y00
     K17G06K  C2017 04 06.02651 14 20 44.79 -30 53 49.0          17.0 RrEG083Y00
     K17G06K  C2017 04 06.02728 14 20 42.95 -30 54 42.0          17.6 RrEG083Y00
     K17G06K  C2017 04 06.02788 14 20 41.47 -30 55 21.6          16.9 RrEG083Y00
     K17G06K  C2017 04 06.02849 14 20 40.03 -30 56 04.0          16.8 RrEG083Y00
     K17G06K KC2017 04 06.35865 14 08 45.88 -36 21 33.3          17.6 RqEG083926
     K17G06K KC2017 04 06.35900 14 08 45.12 -36 21 49.8          17.4 RqEG083926
     K17G06K KC2017 04 06.35934 14 08 44.36 -36 22 07.2          17.1 RqEG083926
     K17G06K |C2017 04 07.28611 13 44 33.14 -45 18 21.4          18.1 VuEG083807
     K17G06K |C2017 04 07.28711 13 44 31.67 -45 18 45.3          18.2 VuEG083807
     K17G06K |C2017 04 07.28810 13 44 30.15 -45 19 08.9          17.9 VuEG083807
     K17G06K |C2017 04 07.28910 13 44 28.65 -45 19 33.1          18.0 VuEG083807
     K17G06K KC2017 04 07.50820 13 40 37.78 -46 42 49.0          18.2 VqEG083E23
     K17G06K KC2017 04 07.51654 13 40 26.28 -46 45 57.1          17.9 VqEG083E23
     K17G06K KC2017 04 07.52487 13 40 14.72 -46 49 02.2          18.2 VqEG083E23
     K17G06K |C2017 04 09.20508 13 15 04.35 -53 14 26.4          19.5 VuEG083807
     K17G06K |C2017 04 09.20656 13 15 03.06 -53 14 39.4          19.5 VuEG083807
     K17G06K |C2017 04 09.20803 13 15 01.80 -53 14 52.4          19.6 VuEG083807
 
Observer details:
807 Cerro Tololo.  Observers T. Linder, R. Holmes.  0.61-m f/6.5 astrograph
    + CCD.
926 Tenagra II Observatory.  Observers G. Masi, M. Schwartz.  Measurers
    G. Masi, P. Holvorcem.  0.41-m f/3.75 reflector + CCD.
E23 Arcadia.  Observer A. Hidas.  0.35-m f/1.9 reflector + CCD.
I52 Steward Observatory, Mt. Lemmon Station.  Observer E. J. Christensen.
    Measurers E. J. Christensen, D. C. Fuls, A. R. Gibbs, A. D. Grauer,
    J. A. Johnson, R. A. Kowalski, S. M. Larson, G. J. Leonard, R. G. Matheny,
    R. L. Seaman, F. C. Shelly.  1.0-m reflector + CCD.
Y00 SONEAR Observatory, Oliveira.  Observers C. Jacques, E. Pimentel,
    J. Barros.  Measurer C. Jacques.  0.28-m f/2.2 astrograph + CCD, 0.45-m
    f/2.9 reflector + CCD.
 
Orbital elements:
2017 GK6                                                 Earth MOID = 0.0062 AU
Epoch 2017 Feb. 16.0 TT = JDT 2457800.5                 MPC
M 352.29527              (2000.0)            P               Q
n   0.57275704     Peri.  138.28269     -0.89359117     -0.44341650
a   1.4360044      Node    15.82822     +0.31325074     -0.72742458
e   0.3435156      Incl.   14.83455     +0.32151019     -0.52367479
P   1.72           H   25.7           G   0.15           U   6
Residuals in seconds of arc
170405 Y00  0.9+  0.8-    170405 926  0.7-  1.5-    170406 Y00  0.5-  0.2-
170405 Y00  1.2+  0.4+    170405 I52  0.6-  1.3-    170406 926  0.3+  0.6+
170405 Y00  0.2-  0.6+    170405 I52  0.5-  1.3-    170406 926  0.4+  1.4+
170405 Y00  1.1+  1.0+    170405 I52  0.2-  0.3-    170406 926  0.2+  0.7+
170405 Y00 (1.7+  0.6+)   170405 I52  0.3-  0.4-    170407 807  0.1-  0.2-
170405 Y00  0.7+  0.0     170405 E23  0.5+  1.2+    170407 807  0.4+  0.0
170405 Y00  0.4+  1.9+    170405 E23 (2.7-  3.3-)   170407 807  0.2+  0.2+
170405 Y00  1.0+  0.3+    170405 E23  0.9-  0.6-    170407 807  0.4+  0.0
170405 Y00  0.1+  0.1+    170405 E23  0.7-  0.8-    170407 E23  0.2+  0.7+
170405 Y00  0.2+  1.0+    170406 Y00  0.5-  0.3+    170407 E23  0.3+  0.2-
170405 Y00  0.7-  1.0+    170406 Y00  0.3+  0.3-    170407 E23  0.2-  0.0
170405 Y00  0.5-  1.1-    170406 Y00  0.0   0.1-    170409 807  0.2+  0.5-
170405 Y00  0.3-  0.3-    170406 Y00  0.5-  0.0     170409 807  0.0   0.6-
170405 Y00  1.1+  0.9-    170406 Y00  0.2-  0.3+    170409 807  0.0   0.9-
170405 926  0.4-  0.5-    170406 Y00  0.2-  0.4-
170405 926  0.3-  0.2-    170406 Y00  0.8-  0.8+

Ephemeris:
2017 GK6                 a,e,i = 1.44, 0.34, 15                  q = 0.9427
Date    TT    R. A. (2000) Decl.     Delta      r     Elong.  Phase     V
2017 03 12    23 45 38.3 +63 59 13   0.1393  0.9490    67.5   104.7    25.2
...
2017 03 27    23 00 33.4 +67 57 19   0.05195 0.9787    67.0   110.2    23.4
...
2017 04 04    16 23 35.7 +41 52 04   0.0079151.0031   112.5    67.1    17.6
...
2017 04 10    13 07 09.0 -54 50 44   0.03314 1.0247   133.0    45.7    20.1
2017 04 11    12 59 16.9 -56 18 15   0.03903 1.0285   131.8    46.6    20.5
2017 04 12    12 53 06.7 -57 20 19   0.04496 1.0324   130.9    47.2    20.8
...
2017 04 18    12 33 46.4 -59 54 21   0.08082 1.0569   129.1    47.5    22.1
...
2017 04 26    12 26 31.6 -60 15 39   0.1291  1.0925   129.2    45.5    23.2
...
2017 05 11    12 33 24.5 -58 35 46   0.2222  1.1654   130.1    41.5    24.4

A. U. Tomatic                (C) Copyright 2017 MPC           M.P.E.C. 2017-G83




More information about the Iaude mailing list